Retour au catalogue

COSMOS 2154

ActifMilitairePO
NORAD 21666·PAYLOAD·🇷🇺 Russia

Lancé Aug 22, 1991 depuis Plesetsk Cosmodrome

Loading…

Prochains Passages (prochaines 24 heures)

TLE

FraisSource: Space-Track

Époque: Sep 14, 2026, 09:08 UTC

1 21666U 91059A   26257.38078347  .00000037  00000-0  24267-4 0  9992
2 21666  82.9063  43.1269 0024259 327.2648  61.2371 13.73544386757081

Suivez COSMOS 2154 en temps réel avec AllMySat

Download on the App Store